Regional Weather Roundup
Issued by NWS

Home | Current Version | Previous Version | Text Only | Print | Product List | Glossary Off
Versions: 1 2 3 4 5 6 7 8 9 10 11 12 13 14 15 16 17 18 19 20 21 22 23 24 25 26 27 28 29 30 31 32 33 34 35 36 37 38 39 40 41 42 43 44 45 46 47 48 49 50

000
ASUS43 KMKX 271934
RWRWI

WISCONSIN REGIONAL WEATHER ROUNDUP
NATIONAL WEATHER SERVICE MILWAUKEE/SULLIVAN WI
300 PM CDT WED MAY 27 2015

NOTE: "FAIR" INDICATES FEW OR NO CLOUDS BELOW 12,000 FEET WITH NO
SIGNIFICANT WEATHER AND/OR OBSTRUCTIONS TO VISIBILITY.

WIZ001-002-006>008-014>016-023>028-272100-
NORTHWEST WISCONSIN

CITY           SKY/WX    TMP DP  RH WIND       PRES   REMARKS
SUPERIOR ARPT  MOSUNNY   82  57  42 SW12G18   29.86S HX  82
ASHLAND        MOSUNNY   81  56  42 SW10      29.87S HX  81
HAYWARD        SUNNY     77  55  46 VRB7      29.92R
SIREN          SUNNY     78  57  47 SW13G18   29.93S
CUMBERLAND     SUNNY     73  59  60 SW10      29.95R
RICE LAKE      MOSUNNY   77  57  50 W10       29.96R
CHETEK         SUNNY     75  59  57 SW13      29.95R
LADYSMITH      SUNNY     75  59  57 SW12      29.96R
EAU CLAIRE     SUNNY     76  59  55 SW10      29.95S
MENOMONIE      SUNNY     76  59  54 S13       29.96S
NEW RICHMOND   SUNNY     76  58  53 SW10G16   29.96R
OSCEOLA        SUNNY     78  58  49 SW10      29.97S
$$

WIZ003>005-009-010-017-018-272100-
NORTH CENTRAL WISCONSIN

CITY           SKY/WX    TMP DP  RH WIND       PRES   REMARKS
MANITOWISH WTR MOSUNNY   73  58  59 W12       29.91R
ARBOR VITAE    MOSUNNY   73  58  59 W9G18     29.92R
WOODRUFF       MOSUNNY   73  58  59 W9G18     29.92R
RHINELANDER    MOSUNNY   72  58  61 W12G22    29.93R
EAGLE RIVER    MOSUNNY   74  55  51 W13G18    29.90S
LAND O LAKES   PTSUNNY   74  53  48 W6G16     29.90S
PHILLIPS       SUNNY     73  58  59 SW9G16    29.92S
TOMAHAWK       MOSUNNY   72  58  61 W7        29.94S
MEDFORD        MOSUNNY   69  60  72 SW7       29.96S
MERRILL        MOSUNNY   71  60  67 W13       29.95S
$$

WIZ029-030-035-036-043>047-272100-
CENTRAL WISCONSIN

CITY           SKY/WX    TMP DP  RH WIND       PRES   REMARKS
WAUSAU         PTSUNNY   70  59  68 W15       29.95R
MOSINEE        PTSUNNY   70  63  78 W10G18    29.98
MARSHFIELD     MOSUNNY   73  57  57 W14       29.97S
STEVENS POINT  PTSUNNY   69  57  67 W10       29.98R
WAUPACA        PTSUNNY   72  59  62 SW8       29.97R
WAUTOMA        MOSUNNY   72  58  61 SW7       29.98F
WISC RAPIDS    PTSUNNY   76  56  49 W12G17    29.98S
CAMP DOUGLAS   MOSUNNY   75  61  60 SW13      29.99R
$$

WIZ011>013-019>022-031-037>040-048>050-272100-
NORTHEAST WISCONSIN

CITY           SKY/WX    TMP DP  RH WIND       PRES   REMARKS
ANTIGO         PTSUNNY   68  61  79 W14       29.95R
SHAWANO        MOSUNNY   72  59  64 W13       29.94R
OCONTO         PTSUNNY   69  60  72 W9G18     29.91R
STURGEON BAY   PTSUNNY   66  55  68 SW9       29.95R
GREEN BAY      PTSUNNY   70  60  70 W13       29.94R
MANITOWOC      LGT RAIN  66  57  72 W9        29.96S
APPLETON       PTSUNNY   68  55  64 SW8       29.97R
CLINTONVILLE   PTSUNNY   68  55  64 W7        29.94S
OSHKOSH        PTSUNNY   68  55  63 VRB6      29.97S
$$

WIZ032>034-041-042-053>061-272100-
SOUTHWEST WISCONSIN

CITY           SKY/WX    TMP DP  RH WIND       PRES   REMARKS
LA CROSSE      MOSUNNY   79  59  50 S9        29.98S HX  80
SPARTA         SUNNY     75  55  48 W9        30.00S
VIROQUA        PTSUNNY   74  58  59 W8        30.02S
BOSCOBEL       CLOUDY    75  57  53 VRB7      30.02S
PRAIRIE DU CHI MOSUNNY   76  57  52 W6        30.02S
PLATTEVILLE    PTSUNNY   73  58  57 NW6       30.03S
$$

WIZ056-057-062-063-064-067-068-272100-
SOUTH CENTRAL WISCONSIN

CITY           SKY/WX    TMP DP  RH WIND       PRES   REMARKS
REEDSBURG      MOSUNNY   72  56  56 SW9       30.01R
BARABOO/DELLS  SUNNY     72  52  49 CALM      30.02R
LONE ROCK      SUNNY     74  55  51 VRB3      30.02R
MINERAL POINT  MOSUNNY   73  54  49 W6        30.04R
MADISON        MOSUNNY   71  52  50 N7        30.01R
MIDDLETON      MOSUNNY   72  51  47 CALM      30.02S
WATERTOWN      CLOUDY   N/A N/A N/A NW10G16   30.01R
MONROE         MOSUNNY   72  54  53 N15       30.03R
JANESVILLE     PTSUNNY   72  57  60 NW20G25   30.00R
$$

WIZ051-052-058>065-066-070>072-272100-
SOUTHEAST WISCONSIN

CITY           SKY/WX    TMP DP  RH WIND       PRES   REMARKS
MILWAUKEE      PTSUNNY   68  55  63 NW13      29.97R
WAUKESHA       MOSUNNY   66  55  68 NW12G18   29.99S
MILWAUKEE/TIMM PTSUNNY   70  54  56 N18       29.97S
RACINE         CLOUDY    69  58  67 W9G16     29.99R
BURLINGTON     LGT RAIN  63  56  79 N12G20    30.00R
KENOSHA        CLOUDY    67  61  81 W9        29.98S
FOND DU LAC    PTSUNNY   67  55  65 VRB6      29.98S
SHEBOYGAN      CLOUDY    67  55  65 NW8       29.96S
WEST BEND      PTSUNNY   68  52  56 NW12      29.99R
JUNEAU         PTSUNNY   65  56  73 W3        30.01S
$$

LSZ147-162-272100-
LAKE SUPERIOR

STATION/POSITION TIME  TEMP    WIND        PRES    WAVE
                       AIR SEA DIR/SP/G            HT/PER
                 (UTC) (F)     (DEG/KT/KT) (MB)    (FT/S)
W MID LAKE BUOY  1850   44 37  220/ 10/ 12   N/A     1/ 4
DEVILS ISLAND    1900   61     230/ 10/ 14   N/A
PORT WING        1840   75     250/  9/ 14   N/A
$$

LMZ867-665-643>646-272100-
LAKE MICHIGAN

STATION/POSITION TIME  TEMP    WIND        PRES    WAVE
                       AIR SEA DIR/SP/G            HT/PER
                 (UTC) (F)     (DEG/KT/KT) (MB)    (FT/S)
CHAMBERS ISLAND  1800   63     170/  6/ 10   N/A
N MID LAKE BUOY  1850   45 37  230/ 10/ 10   N/A     2/ 6
NORTHPORT PIER   1800   65     260/  3/  7   N/A
SISTER BAY       1848   65     250/ 10/ 12   N/A
ALGOMA LAKESHORE 1808          250/  8/ 10   N/A
KEWAUNEE LAKESHO 1900   65     240/  7/ 11   N/A
SHEBOYGAN LAKESH 1900   63     330/  8/ 11   N/A
PORT WASHINGTON  1840   69      10/  7/ 15   N/A
ATWATER BUOY     1900   58 47  340/ 10/ 14   N/A
MILWAUKEE LAKESH 1900   68     320/ 11/ 16   N/A
S MID LAKE BUOY  1850   47 38  280/  8/ 10   N/A     1/ 3
KENOSHA   LAKESH 1900   66     280/  9/ 14   N/A
$$

TC  - TEMPERATURE IN CELSIUS
VSB - VISIBILITY IN STATUTE MILES
WCI - WIND CHILL INDEX
HX  - HEAT INDEX




USA.gov is the U.S. government's official web portal to all federal, state and local government web resources and services.